Terminal Aerodrome Forecast
Issued by NWS

Home | Current Version | Previous Version | Text Only | Print | Product List | Glossary On
Versions: 1 2 3 4 5 6 7 8 9 10 11 12 13 14 15 16 17 18 19 20 21 22 23
392
FTAK31 PANC 091126
TAFAAQ
TAF
PAAQ 091126Z 0912/1012 35012KT P6SM SCT060 BKN200
     FM100300 35007KT P6SM FEW060 SCT120
     FM100600 03012G20KT P6SM FEW060 SCT120=

USA.gov is the U.S. government's official web portal to all federal, state and local government web resources and services.